GW2742 Weather Reports


time (UTC)temp
C
wind
direction
speed
KPH
gust
KPH
rain 1hr
cm
rain 24hr
cm
rain mn
cm
humidity
%
barometer
mb
20260831035526 13 0 0.0 4.8 0.00 0.00 0.00 67 1014.8
20260831035028 14 0 0.0 4.8 0.00 0.00 0.00 68 1014.9
20260831034547 14 35 1.6 4.8 0.00 0.00 0.00 67 1015.0
20260831034027 14 35 1.6 3.2 0.00 0.00 0.00 64 1015.0
20260831033528 15 0 0.0 0.0 0.00 0.00 0.00 65 1014.7
20260831033052 15 0 0.0 3.2 0.00 0.00 0.00 63 1014.6
20260831032528 15 0 0.0 3.2 0.00 0.00 0.00 63 1014.8
20260831032030 15 56 0.0 3.2 0.00 0.00 0.00 63 1014.5
20260831031553 15 0 0.0 1.6 0.00 0.00 0.00 61 1014.4
20260831031032 16 0 0.0 3.2 0.00 0.00 0.00 60 1014.4
20260831030525 16 0 0.0 3.2 0.00 0.00 0.00 59 1014.3
20260831030050 16 0 0.0 3.2 0.00 0.00 0.00 58 1014.2
20260831025528 16 0 0.0 3.2 0.00 0.00 0.00 58 1014.3
20260831025028 16 0 0.0 3.2 0.00 0.00 0.00 56 1014.2
20260831024546 16 0 0.0 3.2 0.00 0.00 0.00 55 1014.0
20260831024028 17 55 0.0 3.2 0.00 0.00 0.00 55 1014.0
20260831023528 17 0 0.0 4.8 0.00 0.00 0.00 55 1013.9
20260831023107 17 0 0.0 4.8 0.00 0.00 0.00 55 1013.7
20260831022528 17 55 0.0 3.2 0.00 0.00 0.00 55 1013.7
20260831022027 17 0 0.0 3.2 0.00 0.00 0.00 53 1013.7
20260831021553 17 0 0.0 0.0 0.00 0.00 0.00 53 1013.6
20260831021031 18 0 0.0 0.0 0.00 0.00 0.00 53 1013.5
20260831020527 18 0 0.0 0.0 0.00 0.00 0.00 52 1013.4
20260831020109 18 0 0.0 0.0 0.00 0.00 0.00 51 1013.4
20260831015527 19 0 0.0 0.0 0.00 0.00 0.00 50 1013.3
20260831015025 20 0 0.0 0.0 0.00 0.00 0.00 50 1013.3
20260831014549 20 0 0.0 1.6 0.00 0.00 0.00 50 1013.2
20260831014028 20 0 0.0 3.2 0.00 0.00 0.00 49 1013.1
20260831013529 21 0 0.0 3.2 0.00 0.00 0.00 49 1013.2
20260831013047 22 0 0.0 0.0 0.00 0.00 0.00 44 1013.1
20260831012527 22 0 0.0 0.0 0.00 0.00 0.00 42 1013.1
20260831012028 22 0 0.0 0.0 0.00 0.00 0.00 43 1013.0
20260831011556 23 0 0.0 0.0 0.00 0.00 0.00 45 1012.9
20260831011028 23 0 0.0 0.0 0.00 0.00 0.00 42 1012.9
20260831010526 23 0 0.0 0.0 0.00 0.00 0.00 45 1013.1
20260831010052 24 0 0.0 0.0 0.00 0.00 0.00 43 1013.0
20260831005528 24 0 0.0 0.0 0.00 0.00 0.00 41 1012.8
20260831005027 24 0 0.0 0.0 0.00 0.00 0.00 41 1012.8
20260831004549 24 0 0.0 0.0 0.00 0.00 0.00 41 1012.8
20260831004028 24 0 0.0 0.0 0.00 0.00 0.00 41 1013.0
20260831003528 25 0 0.0 1.6 0.00 0.00 0.00 40 1012.9
20260831003050 25 0 0.0 3.2 0.00 0.00 0.00 44 1013.0
20260831002524 24 295 0.0 3.2 0.00 0.00 0.00 40 1013.0
20260831002033 24 294 0.0 3.2 0.00 0.00 0.00 41 1012.9
20260831001549 24 0 0.0 3.2 0.00 0.00 0.00 44 1013.0
20260831001028 24 311 0.0 4.8 0.00 0.00 0.00 43 1013.0
20260831000528 23 0 0.0 4.8 0.00 0.00 0.00 43 1013.0
20260831000048 24 340 1.6 4.8 0.00 0.00 0.00 42 1012.8
20260830235527 24 239 0.0 3.2 0.00 0.00 0.00 41 1012.8
20260830235027 24 0 1.6 3.2 0.00 0.00 0.00 45 1012.8
20260830234548 24 0 0.0 4.8 0.00 0.00 0.00 43 1012.7
20260830234027 23 0 0.0 4.8 0.00 0.00 0.00 46 1012.8
20260830233524 23 340 0.0 4.8 0.00 0.00 0.00 44 1012.8
20260830233051 23 0 1.6 8.0 0.00 0.00 0.00 40 1013.0
20260830232527 23 24 3.2 9.7 0.00 0.00 0.00 43 1012.9
20260830232027 23 359 3.2 9.7 0.00 0.00 0.00 43 1012.8
20260830231546 23 0 1.6 9.7 0.00 0.00 0.00 44 1012.8
20260830231024 23 264 1.6 9.7 0.00 0.00 0.00 45 1012.8
20260830230525 23 344 4.8 11.3 0.00 0.00 0.00 45 1012.8
20260830230046 23 330 3.2 11.3 0.00 0.00 0.00 47 1012.8
20260830225524 23 345 4.8 12.9 0.00 0.00 0.00 46 1012.8
20260830225026 23 15 6.4 12.9 0.00 0.00 0.00 44 1012.7
20260830224556 23 1 3.2 9.7 0.00 0.00 0.00 48 1012.7
20260830224028 23 359 3.2 9.7 0.00 0.00 0.00 44 1012.6
20260830223525 23 343 1.6 9.7 0.00 0.00 0.00 45 1012.8
20260830223047 23 334 3.2 9.7 0.00 0.00 0.00 43 1012.7
20260830222525 23 249 3.2 11.3 0.00 0.00 0.00 47 1012.6
20260830222025 23 258 1.6 11.3 0.00 0.00 0.00 45 1012.8
20260830221549 23 333 4.8 11.3 0.00 0.00 0.00 44 1012.6
20260830221026 23 46 4.8 11.3 0.00 0.00 0.00 45 1012.8
20260830220528 23 273 3.2 8.0 0.00 0.00 0.00 44 1012.6
20260830220103 23 345 4.8 11.3 0.00 0.00 0.00 49 1012.6
20260830215529 23 54 1.6 11.3 0.00 0.00 0.00 46 1012.6
20260830215024 23 110 3.2 11.3 0.00 0.00 0.00 42 1012.7
20260830214547 23 53 4.8 14.5 0.00 0.00 0.00 43 1012.7
20260830214031 23 94 1.6 14.5 0.00 0.00 0.00 43 1012.8
20260830213527 23 166 4.8 14.5 0.00 0.00 0.00 45 1012.5
20260830213101 23 146 3.2 11.3 0.00 0.00 0.00 44 1012.7
20260830212524 23 22 4.8 11.3 0.00 0.00 0.00 44 1012.9
20260830212025 23 142 4.8 11.3 0.00 0.00 0.00 41 1013.0
20260830211556 23 90 1.6 6.4 0.00 0.00 0.00 47 1013.1
20260830211032 22 159 0.0 9.7 0.00 0.00 0.00 45 1013.1
20260830210527 22 0 3.2 9.7 0.00 0.00 0.00 43 1013.2
20260830210056 22 27 4.8 9.7 0.00 0.00 0.00 43 1013.3
20260830205527 22 45 3.2 9.7 0.00 0.00 0.00 43 1013.2
20260830205028 22 0 1.6 6.4 0.00 0.00 0.00 44 1013.2
20260830204600 22 282 3.2 6.4 0.00 0.00 0.00 43 1013.4
20260830204026 22 104 3.2 9.7 0.00 0.00 0.00 44 1013.5
20260830203524 22 284 1.6 11.3 0.00 0.00 0.00 44 1013.6
20260830203056 22 113 4.8 11.3 0.00 0.00 0.00 45 1013.5
20260830202528 22 103 3.2 11.3 0.00 0.00 0.00 47 1013.3
20260830202031 22 122 3.2 8.0 0.00 0.00 0.00 46 1013.3
20260830201547 22 53 3.2 11.3 0.00 0.00 0.00 44 1013.4
20260830201027 21 0 3.2 11.3 0.00 0.00 0.00 48 1013.5
20260830200524 22 61 4.8 12.9 0.00 0.00 0.00 51 1013.4
20260830200046 21 70 6.4 12.9 0.00 0.00 0.00 46 1013.4
20260830195528 21 93 3.2 12.9 0.00 0.00 0.00 49 1013.4
20260830195027 21 96 6.4 12.9 0.00 0.00 0.00 46 1013.5
20260830194557 21 27 3.2 9.7 0.00 0.00 0.00 45 1013.4
20260830194029 21 41 0.0 6.4 0.00 0.00 0.00 49 1013.3
20260830193525 21 112 3.2 6.4 0.00 0.00 0.00 52 1013.4
20260830193049 21 337 1.6 6.4 0.00 0.00 0.00 47 1013.5
20260830192528 20 0 1.6 12.9 0.00 0.00 0.00 49 1013.5
20260830192024 20 88 4.8 12.9 0.00 0.00 0.00 48 1013.8
20260830191545 20 29 3.2 14.5 0.00 0.00 0.00 52 1013.8
20260830191025 20 28 4.8 14.5 0.00 0.00 0.00 55 1013.9
20260830190527 20 50 6.4 14.5 0.00 0.00 0.00 52 1013.9
20260830190052 19 44 6.4 12.9 0.00 0.00 0.00 57 1013.9
20260830185525 18 36 6.4 14.5 0.00 0.00 0.00 60 1013.9
20260830185027 18 324 8.0 17.7 0.00 0.00 0.00 60 1013.8
20260830184553 18 1 4.8 19.3 0.00 0.00 0.00 64 1013.8
20260830184030 17 335 8.0 22.5 0.00 0.00 0.00 65 1013.7
20260830183531 17 313 8.0 22.5 0.00 0.00 0.00 66 1013.7
20260830183054 16 319 8.0 24.1 0.00 0.00 0.00 68 1013.8
20260830182525 17 353 11.3 24.1 0.00 0.00 0.00 68 1014.1
20260830182026 17 238 6.4 20.9 0.00 0.00 0.00 67 1014.3
20260830181547 17 341 8.0 24.1 0.00 0.00 0.00 68 1014.2
20260830181024 16 320 12.9 24.1 0.00 0.00 0.00 68 1014.3
20260830180528 16 315 9.7 24.1 0.00 0.00 0.00 70 1015.1
20260830180048 15 283 4.8 12.9 0.00 0.00 0.00 76 1014.8
20260830175527 14 285 4.8 16.1 0.00 0.00 0.00 77 1014.8
20260830175032 13 334 4.8 20.9 0.00 0.00 0.00 79 1014.4
20260830174547 13 273 6.4 20.9 0.00 0.00 0.00 80 1014.3
20260830174031 13 341 8.0 22.5 0.00 0.00 0.00 79 1014.3
20260830173529 13 359 8.0 25.7 0.00 0.00 0.00 78 1015.0
20260830173051 14 330 11.3 25.7 0.00 0.00 0.00 76 1015.1
20260830172527 15 325 9.7 24.1 0.00 0.00 0.00 71 1015.2
20260830172024 15 309 9.7 27.4 0.00 0.00 0.00 69 1015.1
20260830171548 15 326 12.9 33.8 0.00 0.00 0.00 68 1015.0
20260830171026 16 319 12.9 37.0 0.00 0.00 0.00 68 1015.0
20260830170525 17 323 16.1 37.0 0.00 0.00 0.00 65 1015.0
20260830170048 18 244 16.1 37.0 0.00 0.00 0.00 60 1014.8
20260830165531 19 345 16.1 32.2 0.00 0.00 0.00 58 1014.7
20260830165028 20 360 12.9 32.2 0.00 0.00 0.00 57 1014.6
20260830164549 21 330 6.4 25.7 0.00 0.00 0.00 58 1014.5
20260830164032 21 355 4.8 17.7 0.00 0.00 0.00 61 1014.4
20260830163525 21 227 3.2 11.3 0.00 0.00 0.00 57 1013.8
20260830163051 21 322 3.2 11.3 0.00 0.00 0.00 62 1013.4
20260830162528 21 269 1.6 11.3 0.00 0.00 0.00 60 1013.1
20260830162028 20 259 3.2 8.0 0.00 0.00 0.00 60 1013.1
20260830161601 20 328 3.2 11.3 0.00 0.00 0.00 59 1013.1
20260830161024 20 302 3.2 11.3 0.00 0.00 0.00 63 1012.9
20260830160528 20 343 0.0 8.0 0.00 0.00 0.00 64 1013.0
20260830160044 20 333 1.6 6.4 0.00 0.00 0.00 62 1012.8
20260830155529 20 294 1.6 4.8 0.00 0.00 0.00 61 1012.8
20260830155026 19 304 1.6 6.4 0.00 0.00 0.00 65 1012.6
20260830154552 19 229 0.0 8.0 0.00 0.00 0.00 66 1012.8
20260830154025 18 328 3.2 8.0 0.00 0.00 0.00 64 1012.8
20260830153526 18 328 3.2 9.7 0.00 0.00 0.00 64 1012.8
20260830153059 18 15 4.8 9.7 0.00 0.00 0.00 65 1012.9
20260830152527 18 359 3.2 8.0 0.00 0.00 0.00 65 1013.0
20260830152026 18 262 1.6 8.0 0.00 0.00 0.00 64 1012.8
20260830151554 18 349 1.6 4.8 0.00 0.00 0.00 66 1013.0
20260830151025 18 0 0.0 0.0 0.00 0.00 0.00 70 1013.0
20260830150526 17 0 0.0 4.8 0.00 0.00 0.00 70 1012.9
20260830150047 17 0 0.0 6.4 0.00 0.00 0.00 71 1012.8
20260830145528 17 335 1.6 6.4 0.00 0.00 0.00 71 1012.9
20260830145025 17 316 1.6 6.4 0.00 0.00 0.00 74 1012.8
20260830144545 16 0 3.2 6.4 0.00 0.00 0.00 75 1012.8
20260830144025 16 283 1.6 4.8 0.00 0.00 0.00 74 1012.9
20260830143527 16 0 0.0 3.2 0.00 0.00 0.00 78 1012.7
20260830143103 15 0 0.0 6.4 0.00 0.00 0.00 77 1012.8
20260830142524 15 0 0.0 6.4 0.00 0.00 0.00 79 1012.9
20260830142025 14 181 0.0 6.4 0.00 0.00 0.00 82 1013.0
20260830141545 13 0 0.0 4.8 0.00 0.00 0.00 84 1013.0
20260830141024 13 262 1.6 4.8 0.00 0.00 0.00 87 1012.8
20260830140528 13 255 0.0 3.2 0.00 0.00 0.00 87 1013.0
20260830140047 13 0 0.0 3.2 0.00 0.00 0.00 86 1013.0
20260830135531 13 0 0.0 3.2 0.00 0.00 0.00 86 1012.9
20260830135027 13 0 0.0 3.2 0.00 0.00 0.00 86 1012.8
20260830134553 13 263 0.0 3.2 0.00 0.00 0.00 87 1012.8
20260830134025 13 0 0.0 4.8 0.00 0.00 0.00 88 1012.9
20260830133526 12 263 1.6 4.8 0.00 0.00 0.00 89 1013.1
20260830133053 12 268 1.6 4.8 0.00 0.00 0.00 91 1013.0
20260830132524 12 203 0.0 3.2 0.00 0.00 0.00 91 1012.9
20260830132024 12 203 0.0 0.0 0.00 0.00 0.00 91 1012.8
20260830131546 11 0 0.0 0.0 0.00 0.00 0.00 90 1012.8
20260830131027 11 0 0.0 0.0 0.00 0.00 0.00 90 1012.9
20260830130525 11 0 0.0 0.0 0.00 0.00 0.00 90 1012.8
20260830130104 11 0 0.0 0.0 0.00 0.00 0.00 89 1012.9
20260830125528 11 0 0.0 1.6 0.00 0.00 0.00 89 1012.8
20260830125025 11 0 0.0 3.2 0.00 0.00 0.00 89 1012.8
20260830124550 11 0 0.0 4.8 0.00 0.00 0.00 89 1012.9
20260830124028 11 203 1.6 4.8 0.00 0.00 0.00 89 1012.8
20260830123530 11 0 0.0 0.0 0.00 0.00 0.00 88 1012.8
20260830123048 11 0 0.0 0.0 0.00 0.00 0.00 88 1012.8
20260830122531 11 0 0.0 1.6 0.00 0.00 0.00 88 1012.8
20260830122023 12 0 0.0 1.6 0.00 0.00 0.00 87 1012.7
20260830121545 12 0 0.0 1.6 0.00 0.00 0.00 87 1012.8
20260830121024 12 0 0.0 3.2 0.00 0.00 0.00 87 1012.7
20260830120527 12 0 0.0 3.2 0.00 0.00 0.00 87 1012.4
20260830120054 12 0 0.0 1.6 0.00 0.00 0.00 87 1012.5
20260830115527 12 0 0.0 3.2 0.00 0.00 0.00 87 1012.6
20260830115027 12 203 0.0 3.2 0.00 0.00 0.00 86 1012.3
20260830114607 12 0 0.0 4.8 0.00 0.00 0.00 86 1012.4
20260830114026 12 203 1.6 4.8 0.00 0.00 0.00 86 1012.4
20260830113527 12 0 0.0 0.0 0.00 0.00 0.00 86 1012.3
20260830113052 12 0 0.0 0.0 0.00 0.00 0.00 85 1012.2
20260830112527 13 0 0.0 0.0 0.00 0.00 0.00 85 1012.1
20260830112025 13 0 0.0 0.0 0.00 0.00 0.00 85 1011.9
20260830111546 13 0 0.0 0.0 0.00 0.00 0.00 85 1011.8
20260830111028 13 0 0.0 0.0 0.00 0.00 0.00 84 1011.7
20260830110524 13 0 0.0 0.0 0.00 0.00 0.00 84 1011.7
20260830110049 13 0 0.0 0.0 0.00 0.00 0.00 83 1011.6
20260830105527 13 0 0.0 0.0 0.00 0.00 0.00 83 1011.7
20260830105027 13 0 0.0 3.2 0.00 0.00 0.00 83 1011.6
20260830104557 13 0 0.0 3.2 0.00 0.00 0.00 83 1011.6
20260830104027 13 26 1.6 6.4 0.00 0.00 0.00 83 1011.6
20260830103525 13 26 1.6 6.4 0.00 0.00 0.00 82 1011.6
20260830103051 14 27 3.2 8.0 0.00 0.00 0.00 82 1011.6
20260830102531 14 27 3.2 8.0 0.00 0.00 0.00 82 1011.7
20260830102027 14 52 1.6 4.8 0.00 0.00 0.00 83 1011.6
20260830101552 14 42 1.6 4.8 0.00 0.00 0.00 82 1011.6
20260830101029 14 86 0.0 3.2 0.00 0.00 0.00 82 1011.9
20260830100524 14 0 0.0 3.2 0.00 0.00 0.00 81 1012.1
20260830100049 14 86 0.0 4.8 0.00 0.00 0.00 81 1012.2
20260830095527 14 0 1.6 4.8 0.00 0.00 0.00 81 1012.4
20260830095025 14 0 1.6 4.8 0.00 0.00 0.00 81 1012.7
20260830094550 14 303 0.0 4.8 0.00 0.00 0.00 81 1012.8
20260830094027 14 299 0.0 12.9 0.00 0.00 0.00 82 1013.0
20260830093527 14 251 6.4 12.9 0.00 0.00 0.00 82 1013.6
20260830093045 14 252 4.8 9.7 0.00 0.00 0.00 83 1013.5
20260830092529 14 273 1.6 4.8 0.00 0.00 0.00 82 1012.7
20260830092027 14 273 0.0 3.2 0.00 0.00 0.00 82 1012.5
20260830091552 14 0 0.0 1.6 0.00 0.00 0.00 82 1012.4
20260830091029 14 0 0.0 3.2 0.00 0.00 0.00 82 1012.3
20260830090527 14 0 0.0 3.2 0.00 0.00 0.00 82 1012.4
20260830090053 14 273 1.6 3.2 0.00 0.00 0.00 82 1012.4
20260830085533 14 0 0.0 3.2 0.00 0.00 0.00 82 1012.4
20260830085030 14 273 1.6 3.2 0.00 0.00 0.00 81 1012.4
20260830084547 15 0 0.0 3.2 0.00 0.00 0.00 81 1012.3
20260830084027 15 0 0.0 6.4 0.00 0.00 0.00 81 1012.3
20260830083529 14 0 1.6 6.4 0.00 0.00 0.00 81 1012.5
20260830083059 14 0 0.0 0.0 0.00 0.00 0.00 81 1012.4
20260830082526 14 0 0.0 0.0 0.00 0.00 0.00 81 1012.2
20260830082027 14 0 0.0 0.0 0.00 0.00 0.00 81 1012.1
20260830081552 14 0 0.0 0.0 0.00 0.00 0.00 82 1012.1
20260830081027 14 0 0.0 1.6 0.00 0.00 0.00 81 1012.0
20260830080528 14 0 0.0 3.2 0.00 0.00 0.00 81 1012.0
20260830080046 14 0 0.0 4.8 0.00 0.00 0.00 81 1012.0
20260830075532 14 222 1.6 8.0 0.00 0.00 0.00 81 1012.1
20260830075028 15 0 1.6 8.0 0.00 0.00 0.00 80 1012.1
20260830074605 15 210 4.8 8.0 0.00 0.00 0.00 80 1012.2
20260830074028 15 179 3.2 8.0 0.00 0.00 0.00 79 1012.1
20260830073528 15 252 0.0 6.4 0.00 0.00 0.00 79 1012.2
20260830073051 15 252 1.6 6.4 0.00 0.00 0.00 79 1012.3
20260830072529 15 268 3.2 6.4 0.00 0.00 0.00 80 1012.2
20260830072028 15 257 3.2 6.4 0.00 0.00 0.00 81 1012.2
20260830071550 15 229 1.6 4.8 0.00 0.00 0.00 81 1012.2
20260830071028 15 229 0.0 1.6 0.00 0.00 0.00 81 1012.2
20260830070527 15 0 0.0 1.6 0.00 0.00 0.00 80 1012.2
20260830070050 15 0 0.0 1.6 0.00 0.00 0.00 80 1012.3
20260830065526 15 228 0.0 0.0 0.00 0.00 0.00 79 1012.5
20260830065025 15 0 0.0 0.0 0.00 0.00 0.00 78 1012.5
20260830064557 15 0 0.0 0.0 0.00 0.00 0.00 78 1012.5
20260830064026 16 0 0.0 0.0 0.00 0.00 0.00 78 1012.5
20260830063527 16 0 0.0 0.0 0.00 0.00 0.00 77 1012.5
20260830063050 16 0 0.0 1.6 0.00 0.00 0.00 77 1012.7
20260830062527 16 0 0.0 3.2 0.00 0.00 0.00 77 1012.6
20260830062028 16 0 0.0 3.2 0.00 0.00 0.00 77 1012.5
20260830061546 16 0 0.0 3.2 0.00 0.00 0.00 77 1012.6
20260830061028 16 228 0.0 3.2 0.00 0.00 0.00 77 1012.8
20260830060527 16 0 0.0 1.6 0.00 0.00 0.00 77 1013.0
20260830060048 16 0 0.0 1.6 0.00 0.00 0.00 77 1013.2
20260830055524 16 0 0.0 3.2 0.00 0.00 0.00 78 1013.1
20260830055023 16 0 0.0 4.8 0.00 0.00 0.00 78 1012.9
20260830054546 16 251 0.0 4.8 0.00 0.00 0.00 78 1013.0
20260830054027 17 268 1.6 6.4 0.00 0.00 0.00 78 1012.6
20260830053526 17 81 0.0 6.4 0.00 0.00 0.00 77 1012.6
20260830053052 17 81 3.2 6.4 0.00 0.00 0.00 77 1012.8
20260830052526 17 295 0.0 3.2 0.00 0.00 0.00 78 1012.8
20260830052031 17 295 1.6 4.8 0.00 0.00 0.00 78 1012.5
20260830051555 17 0 0.0 4.8 0.00 0.00 0.00 78 1012.4
20260830051024 17 0 0.0 0.0 0.00 0.00 0.00 77 1012.6
20260830050525 17 0 0.0 1.6 0.00 0.00 0.00 76 1012.8
20260830050059 17 0 0.0 3.2 0.00 0.00 0.00 75 1012.8
20260830045525 17 0 0.0 3.2 0.00 0.00 0.00 74 1012.8
20260830045024 17 0 0.0 0.0 0.00 0.00 0.00 74 1012.7
20260830044553 18 0 0.0 1.6 0.00 0.00 0.00 73 1012.5
20260830044024 18 0 0.0 3.2 0.00 0.00 0.00 72 1012.5
20260830043523 18 0 0.0 4.8 0.00 0.00 0.00 72 1012.5
20260830043050 18 0 0.0 11.3 0.00 0.00 0.00 72 1012.5
20260830042530 18 0 1.6 11.3 0.00 0.00 0.00 72 1012.5
20260830042025 18 215 3.2 11.3 0.00 0.00 0.00 72 1012.5
20260830041600 18 218 3.2 9.7 0.00 0.00 0.00 72 1012.5
20260830041028 18 141 4.8 9.7 0.00 0.00 0.00 73 1012.6
20260830040524 18 187 3.2 8.0 0.00 0.00 0.00 73 1012.7
20260830040116 18 183 4.8 8.0 0.00 0.00 0.00 72 1012.6